Time,TemperatureF,DewpointF,PressureIn,WindDirection,WindDirectionDegrees,WindSpeedMPH,WindSpeedGustMPH,Humidity,HourlyPrecipIn,Conditions,Clouds,dailyrainin,SoftwareType,DateUTC
2013-07-01 00:01:00,76.4,70.5,29.47,NE,45,2.0,2.4,82,0.00,,,0.00,WUHU216HW,2013-07-01 04:01:00,
2013-07-01 00:03:00,76.4,70.5,29.47,ESE,113,0.0,2.4,82,0.00,,,0.00,WUHU216HW,2013-07-01 04:03:00,
2013-07-01 00:08:00,76.2,70.3,29.46,ESE,113,1.7,2.0,82,0.00,,,0.00,WUHU216HW,2013-07-01 04:08:00,
2013-07-01 00:13:00,76.4,70.5,29.47,East,90,6.0,6.0,82,0.00,,,0.00,WUHU216HW,2013-07-01 04:13:00,
2013-07-01 00:18:00,76.2,70.3,29.46,ESE,113,0.2,6.0,82,0.00,,,0.00,WUHU216HW,2013-07-01 04:18:00,
2013-07-01 00:23:00,76.2,70.3,29.47,SSE,158,0.0,2.0,82,0.00,,,0.00,WUHU216HW,2013-07-01 04:23:00,
2013-07-01 00:28:00,76.2,70.3,29.47,ESE,113,0.0,4.4,82,0.00,,,0.00,WUHU216HW,2013-07-01 04:28:00,
2013-07-01 00:33:00,76.1,70.2,29.47,ESE,113,0.0,4.4,82,0.00,,,0.00,WUHU216HW,2013-07-01 04:33:00,
2013-07-01 00:38:00,76.1,70.2,29.47,East,90,0.0,4.4,82,0.00,,,0.00,WUHU216HW,2013-07-01 04:38:00,
2013-07-01 00:43:00,75.9,70.0,29.46,ESE,113,0.0,3.3,82,0.00,,,0.00,WUHU216HW,2013-07-01 04:43:00,
2013-07-01 00:48:00,75.9,70.0,29.47,SE,135,0.0,0.0,82,0.00,,,0.00,WUHU216HW,2013-07-01 04:48:00,
2013-07-01 00:53:00,75.9,69.7,29.47,ENE,68,0.6,6.7,81,0.00,,,0.00,WUHU216HW,2013-07-01 04:53:00,
2013-07-01 00:58:00,75.9,69.7,29.48,NW,315,0.0,6.7,81,0.00,,,0.00,WUHU216HW,2013-07-01 04:58:00,
2013-07-01 01:03:00,75.7,69.5,29.48,SSE,158,0.0,0.0,81,0.00,,,0.00,WUHU216HW,2013-07-01 05:03:00,
2013-07-01 01:08:00,75.7,69.5,29.47,ESE,113,0.0,0.0,81,0.00,,,0.00,WUHU216HW,2013-07-01 05:08:00,
2013-07-01 01:13:00,75.5,69.5,29.47,East,90,0.0,0.0,81,0.00,,,0.00,WUHU216HW,2013-07-01 05:13:00,
2013-07-01 01:18:00,75.5,69.3,29.48,ESE,113,0.0,0.0,81,0.00,,,0.00,WUHU216HW,2013-07-01 05:18:00,
2013-07-01 01:23:00,75.3,69.2,29.48,ESE,113,2.2,2.2,81,0.00,,,0.00,WUHU216HW,2013-07-01 05:23:00,
2013-07-01 01:28:00,75.3,69.2,29.48,East,90,2.4,2.4,81,0.00,,,0.00,WUHU216HW,2013-07-01 05:28:00,
2013-07-01 01:33:00,75.0,68.8,29.48,East,90,0.0,2.4,81,0.00,,,0.00,WUHU216HW,2013-07-01 05:33:00,
2013-07-01 01:39:00,75.0,68.8,29.48,ENE,68,0.0,0.0,81,0.00,,,0.00,WUHU216HW,2013-07-01 05:39:00,
2013-07-01 01:44:00,75.0,68.8,29.48,East,90,0.0,0.0,81,0.00,,,0.00,WUHU216HW,2013-07-01 05:44:00,
2013-07-01 01:49:00,75.0,68.8,29.48,East,90,0.0,0.0,81,0.00,,,0.00,WUHU216HW,2013-07-01 05:49:00,
2013-07-01 01:54:00,75.0,68.3,29.48,ENE,68,0.0,0.0,80,0.00,,,0.00,WUHU216HW,2013-07-01 05:54:00,
2013-07-01 01:59:00,74.8,68.3,29.48,ENE,68,0.0,0.0,80,0.00,,,0.00,WUHU216HW,2013-07-01 05:59:00,
2013-07-01 02:04:00,75.0,68.1,29.48,East,90,0.0,0.0,79,0.00,,,0.00,WUHU216HW,2013-07-01 06:04:00,
2013-07-01 02:09:00,74.8,67.9,29.48,ESE,113,0.0,0.0,79,0.00,,,0.00,WUHU216HW,2013-07-01 06:09:00,
2013-07-01 02:14:00,75.0,68.1,29.48,SE,135,0.0,0.0,79,0.00,,,0.00,WUHU216HW,2013-07-01 06:14:00,
2013-07-01 02:19:00,75.0,68.1,29.47,ESE,113,0.0,0.0,79,0.00,,,0.00,WUHU216HW,2013-07-01 06:19:00,
2013-07-01 02:24:00,74.8,67.9,29.47,East,90,2.4,3.5,79,0.00,,,0.00,WUHU216HW,2013-07-01 06:24:00,
2013-07-01 02:29:00,75.0,68.1,29.47,ESE,113,0.0,4.6,79,0.00,,,0.00,WUHU216HW,2013-07-01 06:29:00,
2013-07-01 02:34:00,75.0,68.1,29.47,ESE,113,0.0,4.6,79,0.00,,,0.00,WUHU216HW,2013-07-01 06:34:00,
2013-07-01 02:39:00,75.0,68.1,29.47,ESE,113,1.1,1.5,79,0.00,,,0.00,WUHU216HW,2013-07-01 06:39:00,
2013-07-01 02:45:00,75.0,67.7,29.47,ESE,113,0.0,1.1,78,0.00,,,0.00,WUHU216HW,2013-07-01 06:45:00,
2013-07-01 02:50:00,75.0,68.1,29.47,SSW,203,0.0,0.0,79,0.00,,,0.00,WUHU216HW,2013-07-01 06:50:00,
2013-07-01 02:55:00,75.0,68.1,29.47,East,90,1.5,1.5,79,0.00,,,0.00,WUHU216HW,2013-07-01 06:55:00,
2013-07-01 03:00:00,74.8,68.1,29.47,ESE,113,0.0,2.6,79,0.00,,,0.00,WUHU216HW,2013-07-01 07:00:00,
2013-07-01 03:05:00,74.8,67.9,29.47,NE,45,0.0,2.6,79,0.00,,,0.00,WUHU216HW,2013-07-01 07:05:00,
2013-07-01 03:10:00,74.6,68.1,29.46,East,90,0.0,8.5,80,0.00,,,0.00,WUHU216HW,2013-07-01 07:10:00,
2013-07-01 03:15:00,74.4,68.0,29.46,ESE,113,0.0,8.5,80,0.00,,,0.00,WUHU216HW,2013-07-01 07:15:00,
2013-07-01 03:20:00,74.3,67.8,29.46,East,90,0.0,0.0,80,0.00,,,0.00,WUHU216HW,2013-07-01 07:20:00,
2013-07-01 03:25:00,74.1,67.6,29.46,ENE,68,0.0,0.0,80,0.00,,,0.00,WUHU216HW,2013-07-01 07:25:00,
2013-07-01 03:30:00,74.1,67.6,29.46,ESE,113,0.0,0.0,80,0.00,,,0.00,WUHU216HW,2013-07-01 07:30:00,
2013-07-01 03:35:00,74.1,67.6,29.47,East,90,0.0,1.1,80,0.00,,,0.00,WUHU216HW,2013-07-01 07:35:00,
2013-07-01 03:40:00,74.1,67.6,29.46,East,90,0.0,1.3,80,0.00,,,0.00,WUHU216HW,2013-07-01 07:40:00,
2013-07-01 03:45:00,73.9,67.4,29.47,ESE,113,0.0,1.3,80,0.00,,,0.00,WUHU216HW,2013-07-01 07:45:00,
2013-07-01 03:50:00,73.9,67.4,29.47,ESE,113,0.0,0.0,80,0.00,,,0.00,WUHU216HW,2013-07-01 07:50:00,
2013-07-01 03:56:00,73.9,67.8,29.47,East,90,0.0,0.0,81,0.00,,,0.00,WUHU216HW,2013-07-01 07:56:00,
2013-07-01 04:01:00,73.7,67.6,29.47,ESE,113,0.0,0.0,81,0.00,,,0.00,WUHU216HW,2013-07-01 08:01:00,
2013-07-01 04:06:00,73.7,67.6,29.47,ENE,68,0.0,0.0,81,0.00,,,0.00,WUHU216HW,2013-07-01 08:06:00,
2013-07-01 04:11:00,73.7,67.6,29.47,ESE,113,0.0,0.0,81,0.00,,,0.00,WUHU216HW,2013-07-01 08:11:00,
2013-07-01 04:16:00,73.7,67.6,29.48,East,90,0.0,2.6,81,0.00,,,0.00,WUHU216HW,2013-07-01 08:16:00,
2013-07-01 04:21:00,73.7,67.6,29.47,ENE,68,0.0,2.6,81,0.00,,,0.00,WUHU216HW,2013-07-01 08:21:00,
2013-07-01 04:26:00,73.7,67.8,29.47,East,90,6.0,6.0,81,0.00,,,0.00,WUHU216HW,2013-07-01 08:26:00,
2013-07-01 04:31:00,73.9,67.8,29.47,SE,135,0.0,6.0,81,0.00,,,0.00,WUHU216HW,2013-07-01 08:31:00,
2013-07-01 04:36:00,73.9,67.8,29.48,NE,45,0.0,5.5,81,0.00,,,0.00,WUHU216HW,2013-07-01 08:36:00,
2013-07-01 04:41:00,73.9,67.8,29.48,East,90,0.2,7.6,81,0.00,,,0.00,WUHU216HW,2013-07-01 08:41:00,
2013-07-01 04:46:00,73.9,67.8,29.49,ESE,113,3.8,7.6,81,0.00,,,0.00,WUHU216HW,2013-07-01 08:46:00,
2013-07-01 04:51:00,73.9,68.1,29.49,SE,135,0.0,6.7,82,0.00,,,0.00,WUHU216HW,2013-07-01 08:51:00,
2013-07-01 04:56:00,73.7,67.9,29.49,East,90,0.0,3.1,82,0.00,,,0.00,WUHU216HW,2013-07-01 08:56:00,
2013-07-01 05:01:00,73.7,67.9,29.48,East,90,2.9,7.3,82,0.00,,,0.00,WUHU216HW,2013-07-01 09:01:00,
2013-07-01 05:06:00,73.5,67.7,29.48,East,90,2.6,7.3,82,0.00,,,0.00,WUHU216HW,2013-07-01 09:06:00,
2013-07-01 05:12:00,73.5,67.7,29.48,ESE,113,0.0,10.5,82,0.00,,,0.00,WUHU216HW,2013-07-01 09:12:00,
2013-07-01 05:17:00,73.5,67.7,29.49,ESE,113,6.2,10.5,82,0.00,,,0.00,WUHU216HW,2013-07-01 09:17:00,
2013-07-01 05:22:00,73.5,67.7,29.49,NE,45,0.0,7.3,82,0.00,,,0.00,WUHU216HW,2013-07-01 09:22:00,
2013-07-01 05:27:00,73.5,67.7,29.49,ENE,68,0.0,7.6,82,0.00,,,0.00,WUHU216HW,2013-07-01 09:27:00,
2013-07-01 05:32:00,73.4,67.6,29.49,SSE,158,0.0,7.6,82,0.00,,,0.00,WUHU216HW,2013-07-01 09:32:00,
2013-07-01 05:37:00,73.4,67.6,29.49,SE,135,0.0,0.0,82,0.00,,,0.00,WUHU216HW,2013-07-01 09:37:00,
2013-07-01 05:42:00,73.4,67.9,29.50,ESE,113,4.2,4.2,83,0.00,,,0.00,WUHU216HW,2013-07-01 09:42:00,
2013-07-01 05:47:00,73.2,67.7,29.50,NE,45,0.0,4.2,83,0.00,,,0.00,WUHU216HW,2013-07-01 09:47:00,
2013-07-01 05:52:00,73.2,67.7,29.51,ENE,68,3.3,4.0,83,0.00,,,0.00,WUHU216HW,2013-07-01 09:52:00,
2013-07-01 05:57:00,73.2,67.7,29.51,ESE,113,0.0,3.3,83,0.00,,,0.00,WUHU216HW,2013-07-01 09:57:00,
2013-07-01 06:02:00,73.2,67.7,29.51,NE,45,0.0,0.0,83,0.00,,,0.00,WUHU216HW,2013-07-01 10:02:00,
2013-07-01 06:07:00,73.2,68.1,29.51,East,90,0.0,0.0,84,0.00,,,0.00,WUHU216HW,2013-07-01 10:07:00,
2013-07-01 06:12:00,73.0,67.9,29.50,East,90,0.0,0.0,84,0.00,,,0.00,WUHU216HW,2013-07-01 10:12:00,
2013-07-01 06:17:00,73.0,67.9,29.51,ESE,113,0.0,0.0,84,0.00,,,0.00,WUHU216HW,2013-07-01 10:17:00,
2013-07-01 06:22:00,73.0,67.9,29.51,SSE,158,0.0,0.0,84,0.00,,,0.00,WUHU216HW,2013-07-01 10:22:00,
2013-07-01 06:27:00,72.8,67.7,29.51,ESE,113,0.0,0.0,84,0.00,,,0.00,WUHU216HW,2013-07-01 10:27:00,
2013-07-01 06:32:00,72.6,67.5,29.51,ENE,68,1.3,3.8,84,0.00,,,0.00,WUHU216HW,2013-07-01 10:32:00,
2013-07-01 06:37:00,72.6,67.9,29.51,ESE,113,3.3,8.0,85,0.00,,,0.00,WUHU216HW,2013-07-01 10:37:00,
2013-07-01 06:42:00,72.6,67.9,29.51,SE,135,1.5,8.0,85,0.00,,,0.00,WUHU216HW,2013-07-01 10:42:00,
2013-07-01 06:47:00,72.6,67.9,29.51,ESE,113,0.0,1.5,85,0.00,,,0.00,WUHU216HW,2013-07-01 10:47:00,
2013-07-01 06:52:00,72.6,67.9,29.51,East,90,0.0,1.7,85,0.00,,,0.00,WUHU216HW,2013-07-01 10:52:00,
2013-07-01 06:57:00,72.6,67.9,29.51,East,90,0.0,8.0,85,0.00,,,0.00,WUHU216HW,2013-07-01 10:57:00,
2013-07-01 07:02:00,72.6,67.9,29.51,SE,135,1.7,8.0,85,0.00,,,0.00,WUHU216HW,2013-07-01 11:02:00,
2013-07-01 07:07:00,72.6,67.9,29.52,ESE,113,0.0,6.4,85,0.00,,,0.00,WUHU216HW,2013-07-01 11:07:00,
2013-07-01 07:12:00,72.6,67.9,29.52,ESE,113,0.0,2.0,85,0.00,,,0.00,WUHU216HW,2013-07-01 11:12:00,
2013-07-01 07:17:00,72.6,67.9,29.52,East,90,3.1,3.1,85,0.00,,,0.00,WUHU216HW,2013-07-01 11:17:00,
2013-07-01 07:23:00,72.6,67.9,29.52,SSE,158,0.0,3.1,85,0.00,,,0.00,WUHU216HW,2013-07-01 11:23:00,
2013-07-01 07:28:00,72.6,67.9,29.52,ENE,68,0.0,0.4,85,0.00,,,0.00,WUHU216HW,2013-07-01 11:28:00,
2013-07-01 07:33:00,72.8,68.0,29.52,ESE,113,0.0,0.4,85,0.00,,,0.00,WUHU216HW,2013-07-01 11:33:00,
2013-07-01 07:38:00,73.0,68.2,29.52,ESE,113,0.0,0.0,85,0.00,,,0.00,WUHU216HW,2013-07-01 11:38:00,
2013-07-01 07:43:00,73.2,68.4,29.53,ENE,68,0.0,0.0,85,0.00,,,0.00,WUHU216HW,2013-07-01 11:43:00,
2013-07-01 07:48:00,73.2,68.4,29.53,SSE,158,0.0,3.8,85,0.00,,,0.00,WUHU216HW,2013-07-01 11:48:00,
2013-07-01 07:53:00,73.5,68.8,29.53,East,90,0.0,3.8,85,0.00,,,0.00,WUHU216HW,2013-07-01 11:53:00,
2013-07-01 07:58:00,73.9,69.1,29.52,ENE,68,0.0,2.0,85,0.00,,,0.00,WUHU216HW,2013-07-01 11:58:00,
2013-07-01 08:03:00,74.3,69.1,29.53,East,90,0.0,2.0,84,0.00,,,0.00,WUHU216HW,2013-07-01 12:03:00,
2013-07-01 08:08:00,74.4,69.3,29.53,ESE,113,0.0,1.3,84,0.00,,,0.00,WUHU216HW,2013-07-01 12:08:00,
2013-07-01 08:13:00,74.4,69.0,29.53,ESE,113,0.0,3.3,83,0.00,,,0.00,WUHU216HW,2013-07-01 12:13:00,
2013-07-01 08:18:00,74.3,68.8,29.52,East,90,0.0,3.5,83,0.00,,,0.00,WUHU216HW,2013-07-01 12:18:00,
2013-07-01 08:23:00,74.1,68.6,29.53,ESE,113,5.5,5.5,83,0.00,,,0.00,WUHU216HW,2013-07-01 12:23:00,
2013-07-01 08:28:00,74.4,69.3,29.52,East,90,0.0,5.5,84,0.00,,,0.00,WUHU216HW,2013-07-01 12:28:00,
2013-07-01 08:33:00,74.8,69.7,29.52,East,90,0.0,0.0,84,0.00,,,0.00,WUHU216HW,2013-07-01 12:33:00,
2013-07-01 08:38:00,75.0,69.5,29.53,ENE,68,0.0,0.0,83,0.00,,,0.00,WUHU216HW,2013-07-01 12:38:00,
2013-07-01 08:44:00,75.5,69.7,29.53,SSE,158,0.0,0.0,82,0.00,,,0.00,WUHU216HW,2013-07-01 12:44:00,
2013-07-01 08:49:00,76.1,69.8,29.52,SSE,158,0.0,5.8,81,0.00,,,0.00,WUHU216HW,2013-07-01 12:49:00,
2013-07-01 08:54:00,76.8,70.1,29.53,SE,135,1.3,5.8,80,0.00,,,0.00,WUHU216HW,2013-07-01 12:54:00,
2013-07-01 08:59:00,78.0,71.0,29.53,ESE,113,0.0,4.6,79,0.00,,,0.00,WUHU216HW,2013-07-01 12:59:00,
2013-07-01 09:04:00,78.6,70.7,29.53,ENE,68,4.9,4.9,77,0.00,,,0.00,WUHU216HW,2013-07-01 13:04:00,
2013-07-01 09:09:00,78.8,70.5,29.53,East,90,4.4,6.2,76,0.00,,,0.00,WUHU216HW,2013-07-01 13:09:00,
2013-07-01 09:14:00,78.6,70.3,29.54,SE,135,0.0,6.2,76,0.00,,,0.00,WUHU216HW,2013-07-01 13:14:00,
2013-07-01 09:19:00,78.6,69.9,29.54,SE,135,3.1,8.7,75,0.00,,,0.00,WUHU216HW,2013-07-01 13:19:00,
2013-07-01 09:24:00,78.6,70.3,29.54,ENE,68,5.8,5.8,76,0.00,,,0.00,WUHU216HW,2013-07-01 13:24:00,
2013-07-01 09:29:00,78.6,69.9,29.54,East,90,2.0,7.8,75,0.00,,,0.00,WUHU216HW,2013-07-01 13:29:00,
2013-07-01 09:34:00,78.6,69.9,29.53,East,90,10.5,10.5,75,0.00,,,0.00,WUHU216HW,2013-07-01 13:34:00,
2013-07-01 09:39:00,78.4,69.8,29.53,ESE,113,5.5,10.5,75,0.00,,,0.00,WUHU216HW,2013-07-01 13:39:00,
2013-07-01 09:44:00,78.0,69.8,29.54,ESE,113,0.0,7.8,76,0.00,,,0.00,WUHU216HW,2013-07-01 13:44:00,
2013-07-01 09:49:00,78.0,70.2,29.53,ENE,68,0.0,7.8,77,0.00,,,0.00,WUHU216HW,2013-07-01 13:49:00,
2013-07-01 09:55:00,78.0,70.2,29.54,NE,45,0.0,3.3,77,0.00,,,0.00,WUHU216HW,2013-07-01 13:55:00,
2013-07-01 10:00:00,77.9,70.0,29.53,SE,135,2.4,9.3,77,0.00,,,0.00,WUHU216HW,2013-07-01 14:00:00,
2013-07-01 10:05:00,77.7,69.8,29.54,East,90,1.1,9.3,77,0.00,,,0.00,WUHU216HW,2013-07-01 14:05:00,
2013-07-01 10:10:00,77.5,69.7,29.54,SSE,158,0.4,3.1,77,0.00,,,0.00,WUHU216HW,2013-07-01 14:10:00,
2013-07-01 10:15:00,77.3,69.5,29.54,WNW,293,0.0,0.4,77,0.00,,,0.00,WUHU216HW,2013-07-01 14:15:00,
2013-07-01 10:20:00,77.7,70.2,29.54,East,90,4.9,4.9,78,0.00,,,0.00,WUHU216HW,2013-07-01 14:20:00,
2013-07-01 10:25:00,78.8,70.5,29.54,ENE,68,3.5,6.7,76,0.00,,,0.00,WUHU216HW,2013-07-01 14:25:00,
2013-07-01 10:30:00,79.5,70.8,29.54,SSE,158,0.0,6.7,75,0.00,,,0.00,WUHU216HW,2013-07-01 14:30:00,
2013-07-01 10:35:00,79.5,70.0,29.54,ESE,113,0.0,4.2,73,0.00,,,0.00,WUHU216HW,2013-07-01 14:35:00,
2013-07-01 10:40:00,79.7,70.2,29.55,East,90,0.0,4.2,73,0.00,,,0.00,WUHU216HW,2013-07-01 14:40:00,
2013-07-01 10:45:00,79.8,70.0,29.54,SW,225,2.0,4.0,72,0.00,,,0.00,WUHU216HW,2013-07-01 14:45:00,
2013-07-01 10:50:00,79.5,69.6,29.55,WSW,248,0.0,4.0,72,0.00,,,0.00,WUHU216HW,2013-07-01 14:50:00,
2013-07-01 10:55:00,79.5,70.0,29.55,ESE,113,0.0,0.0,73,0.00,,,0.00,WUHU216HW,2013-07-01 14:55:00,
2013-07-01 11:00:00,79.1,70.1,29.55,WSW,248,0.0,4.2,74,0.00,,,0.00,WUHU216HW,2013-07-01 15:00:00,
2013-07-01 11:05:00,79.1,70.1,29.55,SE,135,7.8,7.8,74,0.00,,,0.00,WUHU216HW,2013-07-01 15:05:00,
2013-07-01 11:11:00,78.9,69.9,29.55,NE,45,0.0,7.8,74,0.00,,,0.00,WUHU216HW,2013-07-01 15:11:00,
2013-07-01 11:16:00,78.9,69.9,29.55,East,90,0.0,4.4,74,0.00,,,0.00,WUHU216HW,2013-07-01 15:16:00,
2013-07-01 11:21:00,78.9,70.3,29.55,SW,225,0.0,0.0,75,0.00,,,0.00,WUHU216HW,2013-07-01 15:21:00,
2013-07-01 11:26:00,79.1,70.5,29.56,WSW,248,0.0,2.9,75,0.00,,,0.00,WUHU216HW,2013-07-01 15:26:00,
2013-07-01 11:31:00,78.9,69.9,29.56,SW,225,0.0,6.7,74,0.00,,,0.00,WUHU216HW,2013-07-01 15:31:00,
2013-07-01 11:36:00,78.6,69.9,29.55,SE,135,6.0,6.7,75,0.00,,,0.00,WUHU216HW,2013-07-01 15:36:00,
2013-07-01 11:41:00,78.6,69.9,29.55,West,270,0.0,6.0,75,0.00,,,0.00,WUHU216HW,2013-07-01 15:41:00,
2013-07-01 11:46:00,78.6,69.5,29.55,ENE,68,0.0,8.2,74,0.00,,,0.00,WUHU216HW,2013-07-01 15:46:00,
2013-07-01 11:51:00,78.6,69.5,29.54,SE,135,5.5,8.2,74,0.00,,,0.00,WUHU216HW,2013-07-01 15:51:00,
2013-07-01 11:56:00,78.6,69.5,29.55,South,180,0.0,5.5,74,0.00,,,0.00,WUHU216HW,2013-07-01 15:56:00,
2013-07-01 12:01:00,78.6,69.9,29.54,ESE,113,0.0,4.2,75,0.00,,,0.00,WUHU216HW,2013-07-01 16:01:00,
2013-07-01 12:06:00,78.6,69.9,29.54,East,90,2.6,2.9,75,0.00,,,0.00,WUHU216HW,2013-07-01 16:06:00,
2013-07-01 12:11:00,78.6,69.9,29.54,ESE,113,6.9,6.9,75,0.00,,,0.00,WUHU216HW,2013-07-01 16:11:00,
2013-07-01 12:17:00,78.4,70.1,29.54,ENE,68,0.0,6.9,76,0.00,,,0.00,WUHU216HW,2013-07-01 16:17:00,
2013-07-01 12:22:00,78.4,70.5,29.54,ENE,68,0.0,3.3,77,0.00,,,0.00,WUHU216HW,2013-07-01 16:22:00,
2013-07-01 12:27:00,78.4,70.5,29.55,ESE,113,0.0,2.6,77,0.00,,,0.00,WUHU216HW,2013-07-01 16:27:00,
2013-07-01 12:32:00,78.4,70.5,29.55,ENE,68,0.0,0.0,77,0.00,,,0.00,WUHU216HW,2013-07-01 16:32:00,
2013-07-01 12:37:00,78.0,69.8,29.54,SW,225,0.0,7.6,76,0.00,,,0.00,WUHU216HW,2013-07-01 16:37:00,
2013-07-01 12:42:00,77.7,69.8,29.55,NNW,338,0.0,6.0,77,0.00,,,0.00,WUHU216HW,2013-07-01 16:42:00,
2013-07-01 12:47:00,77.9,70.0,29.55,ESE,113,0.0,6.0,77,0.00,,,0.00,WUHU216HW,2013-07-01 16:47:00,
2013-07-01 12:52:00,78.0,70.2,29.54,ESE,113,0.0,1.7,77,0.00,,,0.00,WUHU216HW,2013-07-01 16:52:00,
2013-07-01 12:57:00,78.0,70.2,29.54,SW,225,0.0,3.3,77,0.00,,,0.00,WUHU216HW,2013-07-01 16:57:00,
2013-07-01 13:02:00,78.2,70.4,29.54,WSW,248,0.0,3.3,77,0.00,,,0.00,WUHU216HW,2013-07-01 17:02:00,
2013-07-01 13:07:00,78.4,70.1,29.54,SE,135,0.0,2.2,76,0.00,,,0.00,WUHU216HW,2013-07-01 17:07:00,
2013-07-01 13:13:00,78.4,70.1,29.54,ESE,113,3.1,5.8,76,0.00,,,0.00,WUHU216HW,2013-07-01 17:13:00,
2013-07-01 13:18:00,78.4,70.1,29.54,ESE,113,0.0,5.8,76,0.00,,,0.00,WUHU216HW,2013-07-01 17:18:00,
2013-07-01 13:23:00,78.4,70.1,29.54,WSW,248,0.0,5.5,76,0.00,,,0.00,WUHU216HW,2013-07-01 17:23:00,
2013-07-01 13:28:00,78.6,70.3,29.54,East,90,0.0,5.5,76,0.00,,,0.00,WUHU216HW,2013-07-01 17:28:00,
2013-07-01 13:33:00,79.3,71.0,29.54,ENE,68,0.0,0.0,76,0.00,,,0.00,WUHU216HW,2013-07-01 17:33:00,
2013-07-01 13:38:00,79.7,71.0,29.53,ENE,68,0.0,6.0,75,0.00,,,0.00,WUHU216HW,2013-07-01 17:38:00,
2013-07-01 13:43:00,80.9,72.1,29.53,SSE,158,5.8,6.7,75,0.00,,,0.00,WUHU216HW,2013-07-01 17:43:00,
2013-07-01 13:48:00,82.4,72.2,29.53,ENE,68,4.2,6.7,72,0.00,,,0.00,WUHU216HW,2013-07-01 17:48:00,
2013-07-01 13:53:00,83.1,72.7,29.53,East,90,0.0,7.3,71,0.00,,,0.00,WUHU216HW,2013-07-01 17:53:00,
2013-07-01 13:58:00,83.6,72.4,29.53,NE,45,0.0,7.3,69,0.00,,,0.00,WUHU216HW,2013-07-01 17:58:00,
2013-07-01 14:03:00,84.3,73.1,29.53,SSW,203,5.5,5.5,69,0.00,,,0.00,WUHU216HW,2013-07-01 18:03:00,
2013-07-01 14:08:00,84.9,72.7,29.53,SSW,203,4.0,8.7,67,0.00,,,0.00,WUHU216HW,2013-07-01 18:08:00,
2013-07-01 14:13:00,85.4,73.2,29.53,SSW,203,2.4,8.7,67,0.00,,,0.00,WUHU216HW,2013-07-01 18:13:00,
2013-07-01 14:18:00,85.8,73.1,29.53,West,270,0.0,5.5,66,0.00,,,0.00,WUHU216HW,2013-07-01 18:18:00,
2013-07-01 14:23:00,86.3,73.6,29.54,SSW,203,0.0,5.5,66,0.00,,,0.00,WUHU216HW,2013-07-01 18:23:00,
2013-07-01 14:28:00,87.0,73.8,29.54,ESE,113,3.3,3.3,65,0.00,,,0.00,WUHU216HW,2013-07-01 18:28:00,
2013-07-01 14:33:00,87.2,73.1,29.54,East,90,1.1,3.3,63,0.00,,,0.00,WUHU216HW,2013-07-01 18:33:00,
2013-07-01 14:39:00,87.4,73.3,29.54,East,90,0.0,3.3,63,0.00,,,0.00,WUHU216HW,2013-07-01 18:39:00,
2013-07-01 14:44:00,87.6,73.0,29.54,West,270,0.0,2.2,62,0.00,,,0.00,WUHU216HW,2013-07-01 18:44:00,
2013-07-01 14:49:00,87.6,72.1,29.53,WSW,248,0.0,0.0,60,0.00,,,0.00,WUHU216HW,2013-07-01 18:49:00,
2013-07-01 14:54:00,87.2,73.1,29.54,ESE,113,6.9,6.9,63,0.00,,,0.00,WUHU216HW,2013-07-01 18:54:00,
2013-07-01 14:59:00,86.9,70.8,29.54,East,90,5.3,6.9,59,0.00,,,0.00,WUHU216HW,2013-07-01 18:59:00,
2013-07-01 15:04:00,86.9,71.8,29.54,SSW,203,0.0,5.3,61,0.00,,,0.00,WUHU216HW,2013-07-01 19:04:00,
2013-07-01 15:09:00,87.0,71.0,29.54,West,270,0.0,4.6,59,0.00,,,0.00,WUHU216HW,2013-07-01 19:09:00,
2013-07-01 15:14:00,87.2,71.7,29.53,East,90,0.0,2.9,60,0.00,,,0.00,WUHU216HW,2013-07-01 19:14:00,
2013-07-01 15:19:00,88.3,73.0,29.53,ESE,113,5.5,5.5,61,0.00,,,0.00,WUHU216HW,2013-07-01 19:19:00,
2013-07-01 15:25:00,88.5,71.8,29.54,WSW,248,0.0,5.5,58,0.00,,,0.00,WUHU216HW,2013-07-01 19:25:00,
2013-07-01 15:30:00,88.8,73.2,29.54,West,270,2.9,4.0,60,0.00,,,0.00,WUHU216HW,2013-07-01 19:30:00,
2013-07-01 15:35:00,89.6,72.8,29.53,SE,135,0.0,3.3,58,0.00,,,0.00,WUHU216HW,2013-07-01 19:35:00,
2013-07-01 15:40:00,89.4,72.1,29.53,WSW,248,7.1,7.1,57,0.00,,,0.00,WUHU216HW,2013-07-01 19:40:00,
2013-07-01 15:45:00,88.5,71.3,29.52,SE,135,0.4,8.0,57,0.00,,,0.00,WUHU216HW,2013-07-01 19:45:00,
2013-07-01 15:50:00,87.6,71.0,29.52,South,180,0.0,8.2,58,0.00,,,0.00,WUHU216HW,2013-07-01 19:50:00,
2013-07-01 15:55:00,87.4,70.8,29.53,NNE,23,0.0,8.2,58,0.00,,,0.00,WUHU216HW,2013-07-01 19:55:00,
2013-07-01 16:00:00,86.7,70.7,29.53,North,0,0.0,5.1,59,0.00,,,0.00,WUHU216HW,2013-07-01 20:00:00,
2013-07-01 16:05:00,86.5,71.0,29.53,WNW,293,0.0,4.2,60,0.00,,,0.00,WUHU216HW,2013-07-01 20:05:00,
2013-07-01 16:10:00,86.3,70.8,29.53,East,90,10.7,10.7,60,0.00,,,0.00,WUHU216HW,2013-07-01 20:10:00,
2013-07-01 16:15:00,85.8,70.8,29.54,ESE,113,5.8,10.7,61,0.00,,,0.00,WUHU216HW,2013-07-01 20:15:00,
2013-07-01 16:20:00,86.1,71.1,29.53,East,90,7.1,8.5,61,0.00,,,0.00,WUHU216HW,2013-07-01 20:20:00,
2013-07-01 16:25:00,86.7,72.1,29.53,East,90,0.0,7.3,62,0.00,,,0.00,WUHU216HW,2013-07-01 20:25:00,
2013-07-01 16:30:00,87.4,72.4,29.53,East,90,6.2,7.1,61,0.00,,,0.00,WUHU216HW,2013-07-01 20:30:00,
2013-07-01 16:36:00,88.1,72.8,29.53,ENE,68,0.0,7.1,60,0.00,,,0.00,WUHU216HW,2013-07-01 20:36:00,
2013-07-01 16:41:00,88.5,72.9,29.53,SSE,158,2.9,3.8,59,0.00,,,0.00,WUHU216HW,2013-07-01 20:41:00,
2013-07-01 16:46:00,88.8,72.7,29.53,WSW,248,0.0,5.8,59,0.00,,,0.00,WUHU216HW,2013-07-01 20:46:00,
2013-07-01 16:51:00,89.2,73.0,29.53,SW,225,6.0,6.0,59,0.00,,,0.00,WUHU216HW,2013-07-01 20:51:00,
2013-07-01 16:56:00,89.6,72.8,29.53,South,180,5.8,6.0,58,0.00,,,0.00,WUHU216HW,2013-07-01 20:56:00,
2013-07-01 17:01:00,89.7,72.4,29.53,WSW,248,7.1,7.1,57,0.00,,,0.00,WUHU216HW,2013-07-01 21:01:00,
2013-07-01 17:06:00,89.4,71.6,29.53,West,270,0.0,7.1,56,0.00,,,0.00,WUHU216HW,2013-07-01 21:06:00,
2013-07-01 17:11:00,89.2,70.9,29.53,SSE,158,1.1,2.2,55,0.00,,,0.00,WUHU216HW,2013-07-01 21:11:00,
2013-07-01 17:16:00,88.5,70.8,29.53,NNE,23,0.0,4.9,56,0.00,,,0.00,WUHU216HW,2013-07-01 21:16:00,
2013-07-01 17:21:00,87.9,70.3,29.53,SSW,203,7.6,7.6,56,0.00,,,0.00,WUHU216HW,2013-07-01 21:21:00,
2013-07-01 17:26:00,87.9,70.8,29.53,ESE,113,0.0,7.6,57,0.00,,,0.00,WUHU216HW,2013-07-01 21:26:00,
2013-07-01 17:27:00,87.8,70.7,29.53,SW,225,0.0,7.6,57,0.00,,,0.00,WUHU216HW,2013-07-01 21:27:00,
2013-07-01 17:32:00,87.9,70.8,29.53,WSW,248,0.0,4.9,57,0.00,,,0.00,WUHU216HW,2013-07-01 21:32:00,
2013-07-01 17:37:00,87.9,71.4,29.53,West,270,2.6,6.7,58,0.00,,,0.00,WUHU216HW,2013-07-01 21:37:00,
2013-07-01 17:42:00,87.9,71.4,29.53,SE,135,0.0,6.7,58,0.00,,,0.00,WUHU216HW,2013-07-01 21:42:00,
2013-07-01 17:47:00,88.1,71.5,29.52,ESE,113,4.6,4.6,58,0.00,,,0.00,WUHU216HW,2013-07-01 21:47:00,
2013-07-01 17:53:00,88.1,71.0,29.53,NNW,338,0.0,10.9,57,0.00,,,0.00,WUHU216HW,2013-07-01 21:53:00,
2013-07-01 17:58:00,87.8,70.5,29.53,ESE,113,6.7,10.9,57,0.00,,,0.00,WUHU216HW,2013-07-01 21:58:00,
2013-07-01 18:03:00,87.6,70.5,29.53,East,90,5.8,6.7,57,0.00,,,0.00,WUHU216HW,2013-07-01 22:03:00,
2013-07-01 18:08:00,86.5,69.9,29.53,ENE,68,9.6,9.6,58,0.00,,,0.00,WUHU216HW,2013-07-01 22:08:00,
2013-07-01 18:13:00,85.2,69.8,29.54,East,90,0.0,9.6,60,0.00,,,0.00,WUHU216HW,2013-07-01 22:13:00,
2013-07-01 18:18:00,84.7,70.2,29.54,East,90,6.4,7.6,62,0.00,,,0.00,WUHU216HW,2013-07-01 22:18:00,
2013-07-01 18:23:00,84.0,70.0,29.54,East,90,0.0,7.6,63,0.00,,,0.00,WUHU216HW,2013-07-01 22:23:00,
2013-07-01 18:28:00,83.4,69.9,29.54,SE,135,0.0,6.0,64,0.00,,,0.00,WUHU216HW,2013-07-01 22:28:00,
2013-07-01 18:33:00,83.3,69.8,29.54,East,90,1.5,9.1,64,0.00,,,0.00,WUHU216HW,2013-07-01 22:33:00,
2013-07-01 18:38:00,83.4,70.4,29.54,ENE,68,0.0,9.1,65,0.00,,,0.00,WUHU216HW,2013-07-01 22:38:00,
2013-07-01 18:43:00,83.3,70.4,29.54,ENE,68,3.8,6.7,65,0.00,,,0.00,WUHU216HW,2013-07-01 22:43:00,
2013-07-01 18:48:00,83.4,70.4,29.54,East,90,0.0,3.8,65,0.00,,,0.00,WUHU216HW,2013-07-01 22:48:00,
2013-07-01 18:53:00,83.4,70.4,29.54,SE,135,0.0,6.4,65,0.00,,,0.00,WUHU216HW,2013-07-01 22:53:00,
2013-07-01 18:59:00,83.4,70.4,29.55,ESE,113,7.3,7.3,65,0.00,,,0.00,WUHU216HW,2013-07-01 22:59:00,
2013-07-01 19:04:00,83.3,70.2,29.54,SSE,158,0.0,10.9,65,0.00,,,0.00,WUHU216HW,2013-07-01 23:04:00,
2013-07-01 19:09:00,82.7,69.8,29.54,ENE,68,0.0,10.9,65,0.00,,,0.00,WUHU216HW,2013-07-01 23:09:00,
2013-07-01 19:14:00,82.5,69.9,29.54,SE,135,0.0,4.6,66,0.00,,,0.00,WUHU216HW,2013-07-01 23:14:00,
2013-07-01 19:19:00,82.5,69.9,29.55,East,90,0.0,3.3,66,0.00,,,0.00,WUHU216HW,2013-07-01 23:19:00,
2013-07-01 19:24:00,82.2,69.6,29.55,SE,135,0.0,7.3,66,0.00,,,0.00,WUHU216HW,2013-07-01 23:24:00,
2013-07-01 19:29:00,82.2,69.6,29.55,ESE,113,0.0,7.3,66,0.00,,,0.00,WUHU216HW,2013-07-01 23:29:00,
2013-07-01 19:34:00,82.2,69.6,29.55,East,90,0.0,4.0,66,0.00,,,0.00,WUHU216HW,2013-07-01 23:34:00,
2013-07-01 19:39:00,82.0,69.4,29.55,ENE,68,4.4,4.9,66,0.00,,,0.00,WUHU216HW,2013-07-01 23:39:00,
2013-07-01 19:44:00,81.6,69.1,29.55,ESE,113,5.5,6.2,66,0.00,,,0.00,WUHU216HW,2013-07-01 23:44:00,
2013-07-01 19:49:00,81.6,69.6,29.55,ESE,113,0.0,6.2,67,0.00,,,0.00,WUHU216HW,2013-07-01 23:49:00,
2013-07-01 19:54:00,81.5,69.8,29.55,East,90,0.0,4.0,68,0.00,,,0.00,WUHU216HW,2013-07-01 23:54:00,
2013-07-01 19:59:00,81.3,69.7,29.55,SE,135,0.0,6.9,68,0.00,,,0.00,WUHU216HW,2013-07-01 23:59:00,
2013-07-01 20:04:00,81.3,69.7,29.56,ESE,113,0.0,7.1,68,0.00,,,0.00,WUHU216HW,2013-07-02 00:04:00,
2013-07-01 20:09:00,81.1,69.5,29.56,SSW,203,0.0,7.1,68,0.00,,,0.00,WUHU216HW,2013-07-02 00:09:00,
2013-07-01 20:14:00,80.7,69.2,29.56,SE,135,0.0,0.0,68,0.00,,,0.00,WUHU216HW,2013-07-02 00:14:00,
2013-07-01 20:19:00,80.4,69.0,29.56,East,90,0.0,2.9,68,0.00,,,0.00,WUHU216HW,2013-07-02 00:19:00,
2013-07-01 20:24:00,80.4,69.3,29.56,SE,135,0.0,6.7,69,0.00,,,0.00,WUHU216HW,2013-07-02 00:24:00,
2013-07-01 20:29:00,80.2,69.1,29.56,East,90,0.0,6.7,69,0.00,,,0.00,WUHU216HW,2013-07-02 00:29:00,
2013-07-01 20:35:00,79.8,68.8,29.56,SSE,158,0.0,0.0,69,0.00,,,0.00,WUHU216HW,2013-07-02 00:35:00,
2013-07-01 20:40:00,79.8,69.2,29.56,SE,135,5.5,5.5,70,0.00,,,0.00,WUHU216HW,2013-07-02 00:40:00,
2013-07-01 20:45:00,79.5,68.9,29.56,East,90,0.0,5.5,70,0.00,,,0.00,WUHU216HW,2013-07-02 00:45:00,
2013-07-01 20:50:00,79.3,69.1,29.56,ENE,68,0.0,0.0,71,0.00,,,0.00,WUHU216HW,2013-07-02 00:50:00,
2013-07-01 20:55:00,79.1,68.9,29.56,ENE,68,0.0,2.9,71,0.00,,,0.00,WUHU216HW,2013-07-02 00:55:00,
2013-07-01 21:00:00,78.9,68.7,29.57,ENE,68,0.0,3.8,71,0.00,,,0.00,WUHU216HW,2013-07-02 01:00:00,
2013-07-01 21:05:00,78.6,68.7,29.57,SSE,158,0.0,3.8,72,0.00,,,0.00,WUHU216HW,2013-07-02 01:05:00,
2013-07-01 21:10:00,78.6,68.7,29.57,ESE,113,0.0,4.9,72,0.00,,,0.00,WUHU216HW,2013-07-02 01:10:00,
2013-07-01 21:15:00,78.6,69.1,29.57,East,90,0.0,4.9,73,0.00,,,0.00,WUHU216HW,2013-07-02 01:15:00,
2013-07-01 21:20:00,78.4,69.0,29.57,East,90,0.0,5.5,73,0.00,,,0.00,WUHU216HW,2013-07-02 01:20:00,
2013-07-01 21:25:00,78.4,69.0,29.57,ENE,68,0.0,5.5,73,0.00,,,0.00,WUHU216HW,2013-07-02 01:25:00,
2013-07-01 21:30:00,78.0,69.0,29.57,ESE,113,0.6,3.3,74,0.00,,,0.00,WUHU216HW,2013-07-02 01:30:00,
2013-07-01 21:36:00,78.0,69.4,29.58,ESE,113,0.0,3.3,75,0.00,,,0.00,WUHU216HW,2013-07-02 01:36:00,
2013-07-01 21:41:00,78.0,69.4,29.58,SE,135,0.0,3.3,75,0.00,,,0.00,WUHU216HW,2013-07-02 01:41:00,
2013-07-01 21:46:00,77.9,69.6,29.57,ESE,113,1.7,3.3,76,0.00,,,0.00,WUHU216HW,2013-07-02 01:46:00,
2013-07-01 21:51:00,77.9,69.6,29.58,SE,135,0.0,6.4,76,0.00,,,0.00,WUHU216HW,2013-07-02 01:51:00,
2013-07-01 21:56:00,77.7,69.8,29.58,ESE,113,0.0,8.5,77,0.00,,,0.00,WUHU216HW,2013-07-02 01:56:00,
2013-07-01 22:01:00,77.7,69.8,29.59,ENE,68,0.0,8.5,77,0.00,,,0.00,WUHU216HW,2013-07-02 02:01:00,
2013-07-01 22:06:00,77.5,69.7,29.59,SW,225,0.6,2.4,77,0.00,,,0.00,WUHU216HW,2013-07-02 02:06:00,
2013-07-01 22:11:00,77.5,69.7,29.59,East,90,0.0,0.6,77,0.00,,,0.00,WUHU216HW,2013-07-02 02:11:00,
2013-07-01 22:16:00,77.5,69.7,29.59,East,90,0.0,4.2,77,0.00,,,0.00,WUHU216HW,2013-07-02 02:16:00,
2013-07-01 22:21:00,77.3,69.9,29.59,ESE,113,0.0,4.6,78,0.00,,,0.00,WUHU216HW,2013-07-02 02:21:00,
2013-07-01 22:26:00,77.1,69.7,29.59,SE,135,4.2,6.2,78,0.00,,,0.00,WUHU216HW,2013-07-02 02:26:00,
2013-07-01 22:31:00,77.1,70.1,29.59,East,90,7.3,10.2,79,0.00,,,0.00,WUHU216HW,2013-07-02 02:31:00,
2013-07-01 22:36:00,77.1,70.1,29.59,East,90,0.0,10.2,79,0.00,,,0.00,WUHU216HW,2013-07-02 02:36:00,
2013-07-01 22:41:00,77.1,70.1,29.59,ESE,113,7.1,7.1,79,0.00,,,0.00,WUHU216HW,2013-07-02 02:41:00,
2013-07-01 22:46:00,77.1,70.1,29.60,SE,135,0.0,7.1,79,0.00,,,0.00,WUHU216HW,2013-07-02 02:46:00,
2013-07-01 22:51:00,77.1,70.1,29.59,SE,135,0.0,3.5,79,0.00,,,0.00,WUHU216HW,2013-07-02 02:51:00,
2013-07-01 22:57:00,77.1,70.1,29.59,ESE,113,0.0,6.7,79,0.00,,,0.00,WUHU216HW,2013-07-02 02:57:00,
2013-07-01 23:02:00,77.1,70.1,29.59,ESE,113,0.0,6.7,79,0.00,,,0.00,WUHU216HW,2013-07-02 03:02:00,
2013-07-01 23:07:00,77.1,70.1,29.59,ESE,113,0.0,3.3,79,0.00,,,0.00,WUHU216HW,2013-07-02 03:07:00,
2013-07-01 23:12:00,77.1,70.5,29.58,East,90,0.0,3.3,80,0.00,,,0.00,WUHU216HW,2013-07-02 03:12:00,
2013-07-01 23:17:00,77.1,70.5,29.59,South,180,0.0,3.1,80,0.00,,,0.00,WUHU216HW,2013-07-02 03:17:00,
2013-07-01 23:22:00,77.0,70.3,29.59,East,90,0.0,2.9,80,0.00,,,0.00,WUHU216HW,2013-07-02 03:22:00,
2013-07-01 23:27:00,77.0,70.3,29.59,ENE,68,1.7,3.1,80,0.00,,,0.00,WUHU216HW,2013-07-02 03:27:00,
2013-07-01 23:32:00,77.0,70.3,29.59,SW,225,0.0,3.1,80,0.00,,,0.00,WUHU216HW,2013-07-02 03:32:00,
2013-07-01 23:37:00,77.0,70.3,29.59,SSE,158,0.0,0.0,80,0.00,,,0.00,WUHU216HW,2013-07-02 03:37:00,
2013-07-01 23:42:00,76.8,70.1,29.59,WSW,248,0.0,0.0,80,0.00,,,0.00,WUHU216HW,2013-07-02 03:42:00,
2013-07-01 23:47:00,76.8,70.1,29.59,ESE,113,1.3,6.7,80,0.00,,,0.00,WUHU216HW,2013-07-02 03:47:00,
2013-07-01 23:52:00,76.8,70.5,29.59,East,90,0.0,6.7,81,0.00,,,0.00,WUHU216HW,2013-07-02 03:52:00,
2013-07-01 23:57:00,76.8,70.5,29.59,ESE,113,0.0,0.0,81,0.00,,,0.00,WUHU216HW,2013-07-02 03:57:00,